EW8702 Weather Reports


Display with metric or nautical units.
time (UTC)temp
F
wind
direction
speed
MPH
gust
MPH
rain 1hr
in
rain 24hr
in
rain mn
in
humidity
%
barometer
mb
20260831201144 79 117 1.0 3.0 0.00 0.00 0.00 38 1017.2
20260831200122 79 186 0.0 3.0 0.00 0.00 0.00 38 1017.5
20260831195122 78 132 0.0 2.0 0.00 0.00 0.00 41 1017.8
20260831194122 78 132 0.0 2.0 0.00 0.00 0.00 41 1017.8
20260831193122 78 132 0.0 1.0 0.00 0.00 0.00 38 1018.0
20260831192123 78 120 1.0 3.0 0.00 0.00 0.00 37 1018.1
20260831191123 78 134 1.0 3.0 0.00 0.00 0.00 38 1018.2
20260831190122 77 105 2.0 4.0 0.00 0.00 0.00 40 1018.2
20260831185123 77 109 1.0 4.0 0.00 0.00 0.00 40 1018.4
20260831184122 76 112 1.0 3.0 0.00 0.00 0.00 43 1018.6
20260831183122 76 154 1.0 4.0 0.00 0.00 0.00 43 1018.9
20260831182122 76 170 2.0 6.0 0.00 0.00 0.00 43 1019.0
20260831181123 75 157 2.0 5.0 0.00 0.00 0.00 44 1019.2
20260831180144 74 160 2.0 4.0 0.00 0.00 0.00 45 1019.2
20260831175122 73 178 1.0 4.0 0.00 0.00 0.00 45 1019.4
20260831174122 72 172 2.0 3.0 0.00 0.00 0.00 47 1019.5
20260831173122 70 137 1.0 4.0 0.00 0.00 0.00 49 1019.6
20260831172143 69 173 0.0 1.0 0.00 0.00 0.00 52 1019.7
20260831171123 68 176 1.0 5.0 0.00 0.00 0.00 54 1019.7
20260831170123 67 185 0.0 2.0 0.00 0.00 0.00 52 1019.8
20260831165143 66 185 0.0 3.0 0.00 0.00 0.00 53 1019.7
20260831164122 65 0 0.0 0.0 0.00 0.00 0.00 53 1019.7
20260831163123 65 160 0.0 2.0 0.00 0.00 0.00 55 1019.8
20260831162144 63 159 0.0 1.0 0.00 0.00 0.00 55 1019.9
20260831161122 62 169 0.0 2.0 0.00 0.00 0.00 56 1020.1
20260831160123 60 209 1.0 4.0 0.00 0.00 0.00 63 1020.2
20260831155122 58 232 1.0 4.0 0.00 0.00 0.00 61 1020.2
20260831154143 56 0 0.0 0.0 0.00 0.00 0.00 69 1020.2
20260831153144 55 281 0.0 2.0 0.00 0.00 0.00 72 1020.3
20260831152122 53 0 0.0 0.0 0.00 0.00 0.00 76 1020.7
20260831151143 51 281 0.0 3.0 0.00 0.00 0.00 79 1020.6
20260831150122 50 282 0.0 1.0 0.00 0.00 0.00 80 1020.6
20260831145143 50 284 0.0 4.0 0.00 0.00 0.00 82 1020.8
20260831144122 49 0 0.0 0.0 0.00 0.00 0.00 83 1020.8
20260831143122 48 0 0.0 0.0 0.00 0.00 0.00 82 1020.8
20260831142122 48 0 0.0 0.0 0.00 0.00 0.00 82 1020.8
20260831141122 47 0 0.0 0.0 0.00 0.00 0.00 82 1020.8
20260831140122 47 0 0.0 0.0 0.00 0.00 0.00 81 1020.6
20260831135122 47 0 0.0 0.0 0.00 0.00 0.00 81 1020.5
20260831134143 46 0 0.0 0.0 0.00 0.00 0.00 80 1020.4
20260831133122 46 0 0.0 0.0 0.00 0.00 0.00 79 1020.3
20260831132122 47 0 0.0 0.0 0.00 0.00 0.00 79 1020.1
20260831131122 47 0 0.0 0.0 0.00 0.00 0.00 79 1020.1
20260831130122 47 0 0.0 0.0 0.00 0.00 0.00 79 1020.1
20260831125143 47 0 0.0 0.0 0.00 0.00 0.00 79 1020.1
20260831124145 47 0 0.0 0.0 0.00 0.00 0.00 78 1020.1
20260831122122 47 0 0.0 0.0 0.00 0.00 0.00 78 1020.0
20260831121122 47 0 0.0 0.0 0.00 0.00 0.00 78 1020.0
20260831120122 47 0 0.0 0.0 0.00 0.00 0.00 78 1020.1
20260831115122 48 0 0.0 0.0 0.00 0.00 0.00 78 1020.1
20260831114122 48 0 0.0 0.0 0.00 0.00 0.00 78 1020.0
20260831113122 48 290 0.0 1.0 0.00 0.00 0.00 78 1019.9
20260831112122 48 0 0.0 0.0 0.00 0.00 0.00 78 1019.9
20260831111122 48 0 0.0 0.0 0.00 0.00 0.00 77 1019.9
20260831110143 47 0 0.0 0.0 0.00 0.00 0.00 75 1019.7
20260831105122 48 290 0.0 1.0 0.00 0.00 0.00 75 1019.7
20260831104122 48 290 1.0 2.0 0.00 0.00 0.00 75 1019.7
20260831103122 48 290 0.0 1.0 0.00 0.00 0.00 75 1019.8
20260831102122 49 0 0.0 0.0 0.00 0.00 0.00 74 1019.8
20260831101122 49 290 0.0 1.0 0.00 0.00 0.00 74 1019.8
20260831100122 49 291 0.0 2.0 0.00 0.00 0.00 73 1019.6
20260831095122 49 0 0.0 0.0 0.00 0.00 0.00 72 1019.6
20260831094122 49 0 0.0 0.0 0.00 0.00 0.00 71 1019.6
20260831093143 50 0 0.0 0.0 0.00 0.00 0.00 71 1019.6
20260831092122 50 0 0.0 0.0 0.00 0.00 0.00 71 1019.6
20260831091122 50 0 0.0 0.0 0.00 0.00 0.00 70 1019.4
20260831090122 50 0 0.0 0.0 0.00 0.00 0.00 70 1019.4
20260831085143 50 0 0.0 0.0 0.00 0.00 0.00 69 1019.3
20260831084143 51 0 0.0 0.0 0.00 0.00 0.00 69 1019.3
20260831083122 51 0 0.0 0.0 0.00 0.00 0.00 69 1019.4
20260831082122 50 0 0.0 0.0 0.00 0.00 0.00 68 1019.3
20260831081122 50 326 0.0 1.0 0.00 0.00 0.00 68 1019.4
20260831080122 50 322 2.0 3.0 0.00 0.00 0.00 68 1019.4
20260831075143 51 314 0.0 2.0 0.00 0.00 0.00 68 1019.5
20260831074122 51 291 0.0 1.0 0.00 0.00 0.00 68 1019.5
20260831073122 51 291 0.0 1.0 0.00 0.00 0.00 68 1019.4
20260831072122 52 291 1.0 2.0 0.00 0.00 0.00 67 1019.5
20260831071122 52 291 1.0 3.0 0.00 0.00 0.00 67 1019.4
20260831070122 53 323 0.0 1.0 0.00 0.00 0.00 65 1019.4
20260831065122 53 302 0.0 2.0 0.00 0.00 0.00 65 1019.3
20260831064122 53 289 0.0 2.0 0.00 0.00 0.00 65 1019.3
20260831063122 54 0 0.0 0.0 0.00 0.00 0.00 64 1019.2
20260831062144 54 291 0.0 2.0 0.00 0.00 0.00 63 1019.2
20260831061122 54 0 0.0 0.0 0.00 0.00 0.00 62 1019.1
20260831060122 54 291 0.0 1.0 0.00 0.00 0.00 61 1019.2
20260831055122 55 0 0.0 0.0 0.00 0.00 0.00 61 1019.2
20260831054143 56 291 0.0 1.0 0.00 0.00 0.00 59 1019.2
20260831053122 56 0 0.0 0.0 0.00 0.00 0.00 57 1019.1
20260831052122 57 291 0.0 1.0 0.00 0.00 0.00 56 1019.0
20260831051122 57 290 1.0 2.0 0.00 0.00 0.00 55 1019.0
20260831050122 57 291 0.0 2.0 0.00 0.00 0.00 53 1019.0
20260831045122 57 290 0.0 1.0 0.00 0.00 0.00 53 1019.0
20260831041143 59 277 0.0 3.0 0.00 0.00 0.00 52 1018.7
20260831040143 60 0 0.0 1.0 0.00 0.00 0.00 49 1018.6
20260831035122 60 292 1.0 4.0 0.00 0.00 0.00 47 1018.5
20260831034122 60 333 2.0 6.0 0.00 0.00 0.00 45 1018.3
20260831033143 60 336 0.0 3.0 0.00 0.00 0.00 45 1018.2
20260831032122 60 334 2.0 6.0 0.00 0.00 0.00 44 1018.2
20260831031143 61 279 2.0 4.0 0.00 0.00 0.00 49 1017.9
20260831030143 61 279 0.0 1.0 0.00 0.00 0.00 47 1017.7
20260831025122 62 279 2.0 4.0 0.00 0.00 0.00 47 1017.6
20260831024122 63 279 0.0 3.0 0.00 0.00 0.00 46 1017.5
20260831023143 64 280 1.0 6.0 0.00 0.00 0.00 43 1017.2
20260831022143 65 281 0.0 1.0 0.00 0.00 0.00 43 1017.1
20260831021122 66 278 1.0 6.0 0.00 0.00 0.00 40 1017.1
20260831020122 68 308 1.0 4.0 0.00 0.00 0.00 41 1017.0
20260831015143 70 0 0.0 0.0 0.00 0.00 0.00 43 1017.0
20260831014122 71 0 0.0 0.0 0.00 0.00 0.00 41 1017.1
20260831013122 73 248 1.0 3.0 0.00 0.00 0.00 42 1017.1
20260831012122 74 0 0.0 1.0 0.00 0.00 0.00 39 1017.1
20260831011122 75 199 2.0 4.0 0.00 0.00 0.00 33 1017.2
20260831010129 75 200 1.0 2.0 0.00 0.00 0.00 30 1017.2
20260831005128 75 215 1.0 4.0 0.00 0.00 0.00 31 1017.2
20260831004122 75 263 2.0 4.0 0.00 0.00 0.00 31 1017.2
20260831003122 75 244 1.0 4.0 0.00 0.00 0.00 30 1017.3
20260831002122 75 253 2.0 6.0 0.00 0.00 0.00 31 1017.4
20260831001122 76 219 2.0 8.0 0.00 0.00 0.00 32 1017.4
20260831000122 76 186 2.0 7.0 0.00 0.00 0.00 33 1017.5
20260830235122 76 261 3.0 10.0 0.00 0.00 0.00 33 1017.5
20260830234122 76 273 3.0 7.0 0.00 0.00 0.00 34 1017.3
20260830233122 76 206 3.0 7.0 0.00 0.00 0.00 32 1017.3
20260830232122 76 205 1.0 3.0 0.00 0.00 0.00 32 1017.3
20260830231143 76 214 3.0 8.0 0.00 0.00 0.00 40 1017.3
20260830230122 77 202 4.0 9.0 0.00 0.00 0.00 34 1017.3
20260830225122 77 234 3.0 7.0 0.00 0.00 0.00 34 1017.4
20260830224143 78 252 2.0 6.0 0.00 0.00 0.00 34 1016.5
20260830223122 78 196 1.0 4.0 0.00 0.00 0.00 34 1016.5
20260830222122 77 206 3.0 6.0 0.00 0.00 0.00 34 1016.5
20260830221143 77 214 3.0 7.0 0.00 0.00 0.00 33 1017.6
20260830220122 77 245 3.0 9.0 0.00 0.00 0.00 34 1017.7
20260830215122 77 226 4.0 11.0 0.00 0.01 0.00 32 1017.7
20260830214122 76 273 5.0 11.0 0.00 0.01 0.00 33 1017.9
20260830213143 77 237 3.0 10.0 0.00 0.01 0.00 33 1017.8
20260830212122 77 267 4.0 14.0 0.00 0.01 0.00 35 1017.8
20260830211122 78 209 4.0 11.0 0.00 0.01 0.00 38 1017.9
20260830210143 77 199 2.0 8.0 0.00 0.01 0.00 38 1018.0
20260830205122 76 221 3.0 7.0 0.00 0.07 0.00 44 1018.1
20260830204122 76 238 3.0 9.0 0.00 0.07 0.00 39 1018.2
20260830203122 76 237 4.0 9.0 0.00 0.07 0.00 38 1018.0
20260830202122 76 269 4.0 9.0 0.00 0.07 0.00 42 1018.2